Simultaneous Nadir Overpasses (SNOs) Predictions

Prediction of SNOs near US between NOAA-19 and NPP Satellite Orbit:

Table of predicted SNOs near US for the next 10.0 days since TLE Epoch: 8/18/2012
<
Index Date (NOAA-19) Time (NOAA-19) NOAA-19 Lat,Lon Date (NPP) Time (NPP) NPP Lat,Lon Distance(km) Time Diff (sec)
1 08/21/2012 07:41:36 49.90, -81.50 08/21/2012 07:43:37 50.49, -84.46 220.27 121
2 08/21/2012 09:23:41 49.91,-107.02 08/21/2012 09:25:07 50.48,-109.84 210.28 86
3 08/21/2012 17:31:46 49.95, -70.30 08/21/2012 17:30:28 49.63, -72.17 138.42 78
4 08/21/2012 19:13:52 50.00, -95.85 08/21/2012 19:11:59 49.69, -97.57 128.11 113
5 08/21/2012 20:55:57 49.99,-121.36 08/21/2012 20:53:29 49.70,-122.95 118.00 148
6 08/22/2012 07:36:52 28.78, -86.05 08/22/2012 07:30:45 28.97, -87.06 100.54 367
7 08/22/2012 09:19:32
